This is the latest recevied weather packets stored in our database for station/object K7CTM. If no packets are shown the sender has not sent any weather packets the latest 10 day(s).
| Time | Temp. | Humidity | Pressure | Rain* | Wind** | Luminosity | Snow |
|---|---|---|---|---|---|---|---|
| 1788558038 | 32.22° C | 16% | 1019.7 hPa | 0 mm | - | 551 W/m² | - |
| 1788557736 | 31.67° C | 16% | 1019.5 hPa | 0 mm | - | 564 W/m² | - |
| 1788557433 | 31.67° C | 16% | 1019.6 hPa | 0 mm | - | 574 W/m² | - |
| 1788557133 | 31.11° C | 16% | 1019.5 hPa | 0 mm | - | 597 W/m² | - |
| 1788556828 | 32.22° C | 16% | 1019.7 hPa | 0 mm | - | 626 W/m² | - |
| 1788556527 | 31.67° C | 16% | 1019.8 hPa | 0 mm | - | 627 W/m² | - |
| 1788556223 | 31.67° C | 16% | 1019.5 hPa | 0 mm | - | 628 W/m² | - |
| 1788555922 | 31.67° C | 16% | 1019.6 hPa | 0 mm | - | 665 W/m² | - |
| 1788555619 | 31.67° C | 17% | 1019.8 hPa | 0 mm | - | 658 W/m² | - |
| 1788555314 | 32.22° C | 16% | 1019.6 hPa | 0 mm | - | 670 W/m² | - |
| 1788555010 | 31.67° C | 17% | 1019.7 hPa | 0 mm | - | 667 W/m² | - |
| 1788554706 | 32.22° C | 16% | 1019.6 hPa | 0 mm | - | 686 W/m² | - |
| 1788554402 | 31.11° C | 16% | 1019.6 hPa | 0 mm | - | 677 W/m² | - |
| 1788554098 | 31.67° C | 16% | 1019.6 hPa | 0 mm | - | 676 W/m² | - |
| 1788553794 | 31.67° C | 17% | 1019.5 hPa | 0 mm | - | 665 W/m² | - |
| 1788553489 | 31.11° C | 17% | 1019.4 hPa | 0 mm | - | 660 W/m² | - |
| 1788553185 | 30.56° C | 17% | 1019.6 hPa | 0 mm | - | 667 W/m² | - |
| 1788552880 | 31.11° C | 17% | 1019.6 hPa | 0 mm | - | 682 W/m² | - |
| 1788552576 | 30.56° C | 17% | 1019.6 hPa | 0 mm | - | 687 W/m² | - |
| 1788552274 | 31.67° C | 17% | 1019.8 hPa | 0 mm | - | 688 W/m² | - |
| 1788551969 | 31.11° C | 17% | 1019.7 hPa | 0 mm | - | 697 W/m² | - |
| 1788551668 | 30.56° C | 17% | 1019.4 hPa | 0 mm | - | 714 W/m² | - |
| 1788551367 | 30.56° C | 17% | 1019.7 hPa | 0 mm | - | 713 W/m² | - |
| 1788551067 | 31.67° C | 17% | 1019.6 hPa | 0 mm | - | 708 W/m² | - |
| 1788550762 | 31.11° C | 17% | 1019.7 hPa | 0 mm | - | 720 W/m² | - |
* Rain latest hour (hover to see other rain measurements)
** Current wind speed in m/s (hover to see current wind gust speed)